CW9763 Weather Reports


Display with metric or nautical units.
time (UTC)temp
F
wind
direction
speed
MPH
gust
MPH
rain 1hr
in
rain 24hr
in
rain mn
in
humidity
%
barometer
mb
20200706180335 94 217 2.0 6.0 0.00 0.00 0.00 16 1013.5
20200706175324 94 63 2.0 5.0 0.00 0.00 0.00 17 1013.5
20200706174328 93 19 3.0 8.0 0.00 0.00 0.00 16 1013.5
20200706173327 93 24 4.0 6.0 0.00 0.00 0.00 16 1013.5
20200706172348 92 355 1.0 6.0 0.00 0.00 0.00 17 1013.5
20200706171349 91 321 4.0 6.0 0.00 0.00 0.00 18 1013.5
20200706170336 91 36 2.0 4.0 0.00 0.00 0.00 19 1013.5
20200706165335 91 338 5.0 6.0 0.00 0.00 0.00 18 1013.6
20200706164324 90 355 4.0 6.0 0.00 0.00 0.00 18 1013.6
20200706163328 89 11 3.0 6.0 0.00 0.00 0.00 19 1013.6
20200706162331 88 346 3.0 5.0 0.00 0.00 0.00 19 1013.7
20200706161333 87 325 3.0 6.0 0.00 0.00 0.00 20 1013.7
20200706160341 86 350 4.0 6.0 0.00 0.00 0.00 21 1013.7
20200706155342 86 339 4.0 5.0 0.00 0.00 0.00 22 1013.8
20200706154347 85 340 4.0 6.0 0.00 0.00 0.00 22 1013.8
20200706153351 84 159 4.0 6.0 0.00 0.00 0.00 23 1013.7
20200706152341 84 301 2.0 4.0 0.00 0.00 0.00 23 1013.7
20200706151323 84 301 2.0 4.0 0.00 0.00 0.00 23 1013.6
20200706150332 84 300 3.0 4.0 0.00 0.00 0.00 23 1013.6
20200706145334 83 297 3.0 4.0 0.00 0.00 0.00 24 1013.4
20200706144332 82 279 2.0 6.0 0.00 0.00 0.00 25 1013.2
20200706143326 80 271 2.0 4.0 0.00 0.00 0.00 26 1013.2
20200706142330 78 252 2.0 4.0 0.00 0.00 0.00 28 1013.3
20200706141329 76 248 3.0 4.0 0.00 0.00 0.00 30 1013.2
20200706140350 75 248 2.0 4.0 0.00 0.00 0.00 31 1013.1
20200706135340 73 250 2.0 4.0 0.00 0.00 0.00 33 1013.2
20200706134340 71 241 3.0 4.0 0.00 0.00 0.00 35 1013.1
20200706133339 69 219 2.0 4.0 0.00 0.00 0.00 35 1013.0
20200706132343 68 247 2.0 4.0 0.00 0.00 0.00 36 1012.9
20200706131334 66 240 2.0 3.0 0.00 0.00 0.00 36 1012.9
20200706130332 66 249 2.0 3.0 0.00 0.00 0.00 37 1012.9
20200706125338 65 201 2.0 3.0 0.00 0.00 0.00 38 1012.8
20200706124326 65 200 2.0 3.0 0.00 0.00 0.00 37 1012.7
20200706123328 68 200 3.0 4.0 0.00 0.00 0.00 33 1012.6
20200706122337 68 200 3.0 4.0 0.00 0.00 0.00 34 1012.5
20200706121326 68 200 3.0 4.0 0.00 0.00 0.00 33 1012.3
20200706120328 67 200 2.0 3.0 0.00 0.00 0.00 35 1012.3
20200706115349 68 200 3.0 4.0 0.00 0.00 0.00 33 1012.3
20200706114329 67 198 4.0 6.0 0.00 0.00 0.00 34 1012.3
20200706113325 70 273 2.0 3.0 0.00 0.00 0.00 31 1012.2
20200706112328 72 273 3.0 6.0 0.00 0.00 0.00 30 1012.1
20200706111323 71 279 4.0 6.0 0.00 0.00 0.00 31 1012.1
20200706110324 71 277 4.0 5.0 0.00 0.00 0.00 31 1011.9
20200706105329 70 264 4.0 6.0 0.00 0.00 0.00 33 1011.9
20200706104348 71 279 3.0 6.0 0.00 0.00 0.00 32 1012.0
20200706103340 70 270 2.0 4.0 0.00 0.00 0.00 32 1011.9
20200706102324 70 265 3.0 5.0 0.00 0.00 0.00 32 1011.9
20200706101345 71 202 4.0 6.0 0.00 0.00 0.00 31 1011.9
20200706100343 74 244 3.0 4.0 0.00 0.00 0.00 28 1011.9
20200706095337 74 244 3.0 5.0 0.00 0.00 0.00 29 1011.9
20200706094342 73 249 4.0 5.0 0.00 0.00 0.00 30 1011.9
20200706093331 71 254 2.0 4.0 0.00 0.00 0.00 31 1011.9
20200706092335 72 151 3.0 6.0 0.00 0.00 0.00 29 1011.8
20200706091341 75 163 2.0 6.0 0.00 0.00 0.00 28 1011.8
20200706090332 75 229 0.0 1.0 0.00 0.00 0.00 29 1011.8
20200706085335 73 229 0.0 3.0 0.00 0.00 0.00 29 1011.9
20200706084332 73 229 3.0 4.0 0.00 0.00 0.00 28 1011.8
20200706083332 73 251 3.0 4.0 0.00 0.00 0.00 28 1011.9
20200706082332 73 341 0.0 3.0 0.00 0.00 0.00 28 1011.8
20200706081331 75 341 2.0 4.0 0.00 0.00 0.00 26 1011.7
20200706080323 75 336 2.0 5.0 0.00 0.00 0.00 26 1011.8
20200706075338 77 329 4.0 8.0 0.00 0.00 0.00 25 1011.8
20200706074322 77 169 5.0 5.0 0.00 0.00 0.00 25 1011.8
20200706073344 79 238 3.0 4.0 0.00 0.00 0.00 24 1011.8
20200706072338 78 238 0.0 4.0 0.00 0.00 0.00 24 1011.8
20200706071334 80 238 2.0 4.0 0.00 0.00 0.00 23 1011.8
20200706070331 80 238 3.0 5.0 0.00 0.00 0.00 23 1011.7
20200706065328 82 239 2.0 5.0 0.00 0.00 0.00 20 1011.8
20200706064325 83 238 4.0 5.0 0.00 0.00 0.00 20 1011.7
20200706063329 84 250 5.0 7.0 0.00 0.00 0.00 20 1011.6
20200706062347 85 252 4.0 7.0 0.00 0.00 0.00 19 1011.6
20200706061351 84 248 7.0 9.0 0.00 0.00 0.00 19 1011.5
20200706060338 83 281 4.0 8.0 0.00 0.00 0.00 21 1011.6
20200706055343 81 180 2.0 4.0 0.00 0.00 0.00 22 1011.5
20200706054346 82 109 2.0 4.0 0.00 0.00 0.00 22 1011.5
20200706053338 86 186 4.0 9.0 0.00 0.00 0.00 19 1011.6
20200706052326 87 244 5.0 9.0 0.00 0.00 0.00 18 1011.4
20200706051331 85 204 8.0 14.0 0.00 0.00 0.00 19 1011.6
20200706050324 86 219 4.0 8.0 0.00 0.00 0.00 19 1011.6
20200706045332 85 225 3.0 6.0 0.00 0.00 0.00 20 1011.4
20200706044326 86 214 3.0 5.0 0.00 0.00 0.00 19 1011.4
20200706043332 87 236 5.0 8.0 0.00 0.00 0.00 19 1011.3
20200706042338 86 205 4.0 7.0 0.00 0.00 0.00 19 1011.2
20200706041342 87 203 4.0 7.0 0.00 0.00 0.00 19 1011.2
20200706040340 89 207 4.0 8.0 0.00 0.00 0.00 17 1011.0
20200706035342 89 238 4.0 7.0 0.00 0.00 0.00 17 1011.0
20200706034348 88 220 3.0 5.0 0.00 0.00 0.00 18 1010.9
20200706033325 88 227 4.0 5.0 0.00 0.00 0.00 17 1010.9
20200706032324 90 173 2.0 5.0 0.00 0.00 0.00 16 1010.9
20200706031354 92 229 4.0 10.0 0.00 0.00 0.00 15 1010.9
20200706030326 92 250 5.0 8.0 0.00 0.00 0.00 15 1010.9
20200706025330 93 218 6.0 13.0 0.00 0.00 0.00 14 1010.9
20200706024324 94 246 6.0 14.0 0.00 0.00 0.00 14 1010.9
20200706023329 95 246 8.0 16.0 0.00 0.00 0.00 14 1010.9
20200706022336 97 234 8.0 16.0 0.00 0.00 0.00 13 1010.9
20200706021335 97 232 6.0 12.0 0.00 0.00 0.00 13 1010.8
20200706020331 98 234 6.0 15.0 0.00 0.00 0.00 12 1010.8
20200706015335 99 261 9.0 16.0 0.00 0.00 0.00 12 1010.7
20200706014323 100 211 14.0 22.0 0.00 0.00 0.00 12 1010.7
20200706013347 100 188 18.0 23.0 0.00 0.00 0.00 11 1010.7
20200706012327 101 190 17.0 23.0 0.00 0.00 0.00 11 1010.8
20200706011330 101 174 14.0 21.0 0.00 0.00 0.00 11 1010.9
20200706010323 101 187 15.0 19.0 0.00 0.00 0.00 10 1010.9
20200706005327 101 217 13.0 23.0 0.00 0.00 0.00 9 1010.9
20200706004325 102 202 11.0 22.0 0.00 0.00 0.00 9 1011.0
20200706003329 102 169 14.0 21.0 0.00 0.00 0.00 9 1011.1
20200706002325 103 178 12.0 18.0 0.00 0.00 0.00 9 1011.2
20200706001324 103 194 13.0 17.0 0.00 0.00 0.00 9 1011.2
20200706000341 104 200 12.0 19.0 0.00 0.00 0.00 9 1011.4
20200705235343 104 227 11.0 17.0 0.00 0.00 0.00 8 1011.5
20200705234354 104 178 9.0 21.0 0.00 0.00 0.00 8 1011.6
20200705233328 104 178 3.0 9.0 0.00 0.00 0.00 7 1011.8
20200705232331 104 76 7.0 13.0 0.00 0.00 0.00 7 1011.9
20200705231335 104 78 5.0 10.0 0.00 0.00 0.00 7 1012.1
20200705230324 104 166 6.0 11.0 0.00 0.00 0.00 7 1012.2
20200705225330 104 134 5.0 10.0 0.00 0.00 0.00 8 1012.3
20200705224337 104 157 6.0 10.0 0.00 0.00 0.00 7 1012.4
20200705223325 103 126 4.0 10.0 0.00 0.00 0.00 8 1012.5
20200705222333 103 39 1.0 3.0 0.00 0.00 0.00 8 1012.6
20200705221337 104 117 6.0 10.0 0.00 0.00 0.00 8 1012.8
20200705220328 103 276 4.0 7.0 0.00 0.00 0.00 8 1012.8
20200705215328 103 198 6.0 10.0 0.00 0.00 0.00 8 1013.0
20200705214331 102 209 2.0 6.0 0.00 0.00 0.00 8 1013.2
20200705213340 102 326 5.0 8.0 0.00 0.00 0.00 8 1013.4
20200705212337 101 300 2.0 8.0 0.00 0.00 0.00 8 1013.6
20200705211325 101 45 4.0 8.0 0.00 0.00 0.00 8 1013.8
20200705210347 102 178 6.0 11.0 0.00 0.00 0.00 7 1014.0
20200705205326 101 109 4.0 10.0 0.00 0.00 0.00 7 1014.1
20200705204326 101 124 2.0 9.0 0.00 0.00 0.00 6 1014.2
20200705203325 101 355 5.0 9.0 0.00 0.00 0.00 5 1014.3
20200705202323 101 50 5.0 9.0 0.00 0.00 0.00 5 1014.5
20200705201331 100 195 1.0 8.0 0.00 0.00 0.00 7 1014.7
20200705200331 101 39 3.0 8.0 0.00 0.00 0.00 6 1014.8
20200705195335 99 61 5.0 11.0 0.00 0.00 0.00 7 1014.9
20200705194328 100 74 5.0 11.0 0.00 0.00 0.00 8 1015.1
20200705193332 98 98 5.0 10.0 0.00 0.00 0.00 8 1015.2
20200705192336 98 5 5.0 8.0 0.00 0.00 0.00 9 1015.2
20200705191335 97 28 6.0 10.0 0.00 0.00 0.00 9 1015.3
20200705190338 96 161 1.0 5.0 0.00 0.00 0.00 10 1015.5
20200705185341 96 140 2.0 7.0 0.00 0.00 0.00 10 1015.5
20200705184349 96 78 4.0 8.0 0.00 0.00 0.00 12 1015.5
20200705183340 96 28 3.0 6.0 0.00 0.00 0.00 12 1015.8
20200705182327 94 36 5.0 7.0 0.00 0.00 0.00 12 1015.9